This demonstration page uses our WeatherBlox Daily Observations layout. Learn more.

Left ArrowRight Arrow

30.00354, -91.81873

Hourly Observations for September 23, 2022

Temp ( °F °C ) Dew Point ( °F °C ) Humidity (%) Winds ( mph kmh ) Pressure ( in mb ) Visibility ( mi km ) Precip ( " mm )
12:53 am 00:53 Clear 78 25.6 74 23.3 87 87 Calm 29.95 1014 7 11 0.00 0.00
1:53 am 01:53 Clear 78 25.6 74 23.3 87 87 WNW 3 6 29.95 1014 7 11 0.00 0.00
2:44 am 02:44 Clear with Mist and Fog 75 23.9 72 22.2 90 90 Calm 29.95 1014 3 4 0.00 0.00
2:53 am 02:53 Clear with Mist and Fog 75 23.9 73 22.8 94 94 N 3 6 29.95 1014 3 5 0.00 0.00
3:53 am 03:53 Clear with Mist and Fog 76 24.4 74 23.3 94 94 Calm 29.95 1014 3 5 0.00 0.00
4:03 am 04:03 Clear with Mist and Fog 76 24.4 74 23.3 94 94 Calm 29.95 1014 2 3 0.00 0.00
4:11 am 04:11 Clear with Mist and Fog 75 23.9 73 22.8 94 94 Calm 29.95 1014 2 3 0.00 0.00
4:19 am 04:19 Clear with Mist and Fog 76 24.4 73 22.8 91 91 Calm 29.96 1014 2 3 0.00 0.00
4:28 am 04:28 Clear with Mist and Fog 76 24.4 73 22.8 91 91 Calm 29.95 1014 2 3 0.00 0.00
4:38 am 04:38 Clear with Mist and Fog 76 24.4 73 22.8 91 91 N 3 6 29.95 1014 3 4 0.00 0.00
4:53 am 04:53 Clear with Mist and Fog 75 23.9 73 22.8 94 94 N 5 7 29.95 1014 4 6 0.00 0.00
5:53 am 05:53 Clear 75 23.9 71 21.7 88 88 NNE 6 9 29.97 1015 8 13 0.00 0.00
6:53 am 06:53 Clear 74 23.3 70 21.1 87 87 N 6 9 29.99 1016 10 16 0.00 0.00
7:53 am 07:53 Sunny 76 24.4 70 21.1 82 82 NNE 8 13 30.01 1016 10 16 0.00 0.00
8:53 am 08:53 Sunny 79 26.1 71 21.7 77 77 NE 9 15 30.02 1017 10 16 0.00 0.00
9:53 am 09:53 Sunny 82 27.8 71 21.7 69 69 NE 7 11 30.03 1017 10 16 0.00 0.00
10:53 am 10:53 Sunny 86 30 72 22.2 63 63 NE 7 11 30.03 1017 10 16 0.00 0.00
11:53 am 11:53 Sunny 89 31.7 73 22.8 59 59 undefined N/A 30.02 1017 10 16 0.00 0.00
12:53 pm 12:53 Sunny 92 33.3 71 21.7 51 51 VRB 5 7 30.00 1016 10 16 0.00 0.00
1:53 pm 13:53 Sunny 94 34.4 72 22.2 49 49 ENE 6 9 29.98 1015 10 16 0.00 0.00
2:53 pm 14:53 Sunny 95 35 71 21.7 46 46 VRB 5 7 29.96 1015 10 16 0.00 0.00
3:53 pm 15:53 Sunny 95 35 69 20.6 43 43 N 7 11 29.95 1014 10 16 0.00 0.00
4:53 pm 16:53 Sunny 94 34.4 67 19.4 41 41 NE 9 15 29.94 1014 10 16 0.00 0.00
5:53 pm 17:53 Sunny 92 33.3 69 20.6 47 47 ENE 9 15 29.94 1014 10 16 0.00 0.00
6:53 pm 18:53 Sunny 87 30.6 71 21.7 59 59 ENE 6 9 29.96 1014 10 16 0.00 0.00
7:53 pm 19:53 Clear 84 28.9 71 21.7 65 65 E 5 7 29.96 1015 10 16 0.00 0.00
8:53 pm 20:53 Clear 79 26.1 72 22.2 79 79 Calm 29.98 1015 10 16 0.01 0.13
9:53 pm 21:53 Clear 77 25 72 22.2 84 84 Calm 30.00 1016 10 16 0.00 0.00
10:53 pm 22:53 Clear 78 25.6 71 21.7 79 79 Calm 30.01 1016 10 16 0.00 0.00
11:53 pm 23:53 Clear 77 25 71 21.7 82 82 Calm 30.01 1016 10 16 0.00 0.00

Powered by AerisWeather